Simultaneous Nadir Overpasses (SNOs) Predictions

Prediction of SNOs between FY3D and NOAA-19 Satellite Orbit:

Table of predicted SNOs for the next 14.0 days since TLE Epoch: 9/21/2019
Index Date (FY3D) Time (FY3D) Lat,Lon (FY3D) SZA (FY3D ) Date (NOAA-19) Time (NOAA-19) Lat,Lon (NOAA-19) SZA (NOAA-19 ) Distance(km) Time Diff (sec)
1 09/29/2019 01:48:21 79.91, 116.13 83.88 09/29/2019 01:47:14 79.92, 116.18 83.91 1.29 67
2 09/29/2019 02:39:05 -79.91, -76.51 96.12 09/29/2019 02:38:15 -79.92, -76.53 96.08 1.88 50
3 09/29/2019 03:29:51 79.94, 90.51 83.95 09/29/2019 03:29:15 79.91, 90.60 83.94 3.11 36
4 09/29/2019 04:20:35 -79.93,-102.13 96.05 09/29/2019 04:20:16 -79.92,-102.11 96.05 1.75 19
5 09/29/2019 05:11:20 79.93, 65.18 83.97 09/29/2019 05:11:15 79.93, 65.33 83.96 2.85 5
6 09/29/2019 06:02:04 -79.93,-127.46 96.03 09/29/2019 06:02:16 -79.94,-127.38 96.04 1.83 12
7 09/29/2019 06:52:49 79.93, 39.85 83.99 09/29/2019 06:53:16 79.93, 39.74 83.99 2.05 27
8 09/29/2019 07:43:33 -79.92,-152.79 96.01 09/29/2019 07:44:17 -79.93,-152.95 96.01 3.17 44
9 09/29/2019 08:34:18 79.93, 14.52 84.01 09/29/2019 08:35:16 79.94, 14.47 84.01 2.28 58




NCC Satellite Simultaneous Nadir Overpasses (SNOs) Prediction Service
